Hourly Weather Roundup
Issued by NWS Central Illinois

Home | Current Version | Previous Version | Text Only | Print | Product List | Glossary On
Versions: 1 2 3 4 5 6 7 8 9 10 11 12 13 14 15 16 17 18 19 20 21 22 23 24 25 26 27 28 29 30 31 32 33 34 35 36 37 38 39 40 41 42 43 44 45 46 47 48 49 50
000
NZUS43 KILX 190710
HWRILX

Area Weather Roundup
National Weather Service Lincoln IL
200 AM CDT THU OCT 19 2017

NOTE:  "FAIR" indicates few or no clouds below 12,000 feet, with
       no sigificant weather and/or obstructions to visibility.


CITY           SKY/WX    TMP DP  RH WIND       PRES   REMARKS
Bloomington    CLEAR     56  47  71 SW13      30.10S
Champaign      CLEAR     51  45  79 S9        30.12S
Danville       CLEAR     52  46  77 SW8       30.11R
Decatur        CLEAR     54  48  80 SW9       30.12S
Effingham      CLEAR     51  47  86 SE3       30.17S
Flora          CLEAR     49  46  90 S3        30.17S
Galesburg      CLEAR     50  45  81 S6        30.06S
Jacksonville   CLEAR     57  47  70 S8        30.09F
Lacon          CLEAR     56  48  74 SW6       30.05S
Lawrenceville  CLEAR     50  45  83 S5        30.18R
Litchfield     CLEAR     52  47  83 S7        30.13S
$$


CITY           SKY/WX    TMP DP  RH WIND       PRES   REMARKS
Lincoln        CLEAR     53  49  86 S6        30.09F
Macomb         CLEAR     52  45  75 SW3       30.08S
Mattoon        CLEAR     54  48  80 S7        30.13S
Mt Carmel AP   CLEAR     51  45  81 SE3       30.17S
Olney-Noble AP CLEAR     51  49  93 S3        30.18R
Paris AP       CLEAR     55  48  79 SW10      30.15S
Peoria         CLEAR     53  47  79 S6        30.07F
Pontiac        CLEAR     56  50  81 SW9       30.08S
Rantoul        CLEAR     51  47  87 S5        30.11S
Robinson       CLEAR     46  44  93 S3        30.18S
Springfield    CLEAR     56  49  77 S6        30.10F
Taylorville    CLEAR     53  47  80 S7        30.12S
$$

...REGIONAL REPORTS...


CITY           SKY/WX    TMP DP  RH WIND       PRES   REMARKS
Chicago O`Hare PTCLDY    59  45  59 SW12      30.03R
Kankakee       CLEAR     53  46  76 SW7       30.09R
Moline         CLEAR     57  44  62 W3        30.04R
Mount Sterling CLEAR     52  45  76 S7        30.08R
Mount Vernon   CLEAR     53  48  83 CALM      30.17R
Pittsfield     CLEAR     55  47  73 S3        30.10S
Quincy         CLEAR     54  45  71 S8        30.08S
Rockford       CLEAR     54  44  69 SW8       30.04S
$$


CITY           SKY/WX    TMP DP  RH WIND       PRES   REMARKS
Burlington     CLEAR     53  46  77 SW7       30.05S
Cedar Rapids   CLEAR     51  46  83 CALM      30.03R
Des Moines     PTCLDY    53  49  86 CALM      30.04R
Kirksville     CLEAR     50  48  93 SW3       30.08R
Ottumwa        CLEAR     50  47  89 SW6       30.05R
St Louis       CLEAR     58  49  72 S5        30.13S
$$


CITY           SKY/WX    TMP DP  RH WIND       PRES   REMARKS
Terre Haute    CLEAR     52  45  77 S5        30.16S
Evansville     CLEAR     50  46  86 CALM      30.20R
Indianapolis   CLEAR     51  45  79 S7        30.16F
Lafayette      CLEAR     51  46  83 S3        30.13S
Madison        CLEAR     56  47  71 W3        30.01R
Milwaukee      CLOUDY    62  44  51 SW17G23   29.98R
$$





USA.gov is the U.S. government's official web portal to all federal, state and local government web resources and services.